Home   Weather   Xiamen   Past weeks

Flag for China Past Weather in Xiamen, Fujian, China — Yesterday and Last 2 Weeks

73 °F

Sprinkles. Cloudy.

Feels Like: 70 °F
Forecast: 73 / 84 °F
Wind: 3 mph from Northeast

Location: Xiamen Airport

Current Time: Oct 24, 2016 at 11:39:15 AM

Latest Report: Oct 24, 2016 at 11:00 AM

Visibility: 5 mi

Pressure: 29.95 "Hg

Humidity: 94%

Dew Point: 72 °F

Location of XiamenLocation

Past Weather in Xiamen — Graph


Xiamen Temperature Yesterday

Maximum temperature yesterday: 91 °F (at 12:00 PM)
Minimum temperature yesterday: 77 °F (at 2:00 AM)
Average temperature yesterday: 82 °F

High & Low Weather Summary for the Past Weeks

High91 °F (Oct 20, 1:00 PM)94% (Oct 10, 8:00 AM)30.04 "Hg (Oct 10, 8:00 AM)
Low66 °F (Oct 10, 5:00 AM)38% (Oct 14, 2:00 PM)29.59 "Hg (Oct 20, 3:00 PM)
Average78 °F74%29.87 "Hg
* Reported Oct 9 10:00 AM — Oct 24 10:00 AM, Xiamen, Weather by CustomWeather, © 2016

Note: Actual official high and low records may vary slightly from our data, if they occured in-between our weather recording intervals... More about our weather records


Xiamen Weather History for the Previous 24 Hours

Scroll right to see more
Time TempWeatherWind HumidityBarometerVisibility
10:00 AM
Mon, Oct 24
73 °FSprinkles. Cloudy.3 mph94%29.95 "HgN/A
9:00 AM73 °FSprinkles. Cloudy.3 mph94%29.98 "HgN/A
8:00 AM73 °FSprinkles. Overcast.6 mph94%29.95 "HgN/A
7:00 AM73 °FPartly sunny.10 mph89%29.92 "HgN/A
6:00 AM75 °FPassing clouds.8 mph83%29.92 "HgN/A
5:00 AM75 °FPassing clouds.6 mph89%29.89 "HgN/A
4:00 AM75 °FMostly cloudy.8 mph89%29.89 "HgN/A
3:00 AM75 °FMostly cloudy.6 mph89%29.89 "HgN/A
2:00 AM75 °FSprinkles. Partly cloudy.8 mph89%29.89 "HgN/A
1:00 AM75 °FSprinkles. Partly cloudy.13 mph89%29.86 "Hg6 mi
12:00 AM77 °FSprinkles. Passing clouds.10 mph89%29.86 "Hg6 mi
11:00 PM
Sun, Oct 23
77 °FOvercast.10 mph89%29.89 "Hg6 mi
10:00 PM79 °FOvercast.15 mph84%29.86 "Hg5 mi
9:00 PM81 °FSprinkles. Passing clouds.13 mph89%29.86 "Hg4 mi
8:00 PM82 °FPassing clouds.3 mph84%29.83 "Hg5 mi
7:00 PM82 °FPassing clouds.1 mph84%29.80 "HgN/A
6:00 PM86 °FPartly cloudy.1 mph70%29.77 "HgN/A
5:00 PM86 °FPassing clouds.3 mph70%29.77 "HgN/A
4:00 PM88 °FPassing clouds.6 mph66%29.74 "HgN/A
3:00 PM88 °FScattered clouds.8 mph66%29.74 "HgN/A
2:00 PM90 °FPassing clouds.6 mph63%29.74 "HgN/A
1:00 PM90 °FPassing clouds.1 mph63%29.77 "HgN/A
12:00 PM91 °FPassing clouds.1 mph56%29.80 "HgN/A
11:00 AM88 °FPassing clouds.3 mph62%29.83 "Hg5 mi
Weather by CustomWeather, © 2016

See weather overviewHow to use our weather pages